Ana Sayfa
METAR-TAF:

METAR-TAF

Havaalanları :

Grosse Ile Municipal Airport

Detroit / Grosse Ile, Michigan, Amerika Birleşik Devletleri

Enlem: 42-05-55N, Boylam: 083-09-40W, yükseklik: 180 m

Güncel hava durumu gözlemi

Rapor saat 05:55 UTC de 16 dakika önce yapıldı.
Rüzgar güneybatıdan 6 kt
Sıcaklık -4°C
Nem 80%
Basınç 1030 hPa
Görüş mesafesi: 16.1 km
Açık gökyüzü

METAR: KONZ 220555Z AUTO 22006KT 10SM CLR M04/M07 A3041 RMK AO2 T10421070 11032 21045 410181063

Saat: 01:11 (06:11 UTC)


TAF: eksik

4.000'den fazla havaalanı için hava durumu gözlemleri ve tahminleri (METAR ve TAF raporları).

Kullanılabilir istasyonlar harita üzerinde sarı ve kırmızı noktalarla gösterilir.

İstasyonun adını görmek için fareyi noktanın üzerinde gezdirin.

Sonrasında hava gözlem ve tahminlerini görmek için tıklayın.

Haritayı değiştirmek için: yaklaştırmak için siyah artı işaretli yeşil düğmeye ve uzaklaştırmak için de eksi işaretli düğmeye hızla tıklayın; bitişik haritalar için yeşil okları kullanın.


METAR-TAF: